The Dalles, WA

2:22 AM PST on November 15, 2019 (GMT -0800)
Columbia Gorge Regional-The Dalles

Weather History for KDLS - September, 2019

Change the Weather History Date:

Thursday, September 26, 2019

  Actual Average Record
Temperature  
Mean Temperature 64 °F -  
Max Temperature 73 °F 76 °F 93 °F (2003)
Min Temperature 57 °F 49 °F 35 °F (1972)
Degree Days  
Heating Degree Days 1    
Growing Degree Days 14 (Base 50)    
Moisture  
Dew Point 50 °F    
Average Humidity 58    
Maximum Humidity 67    
Minimum Humidity 49    
Precipitation  
Precipitation 0.00 in - - ()
Sea Level Pressure  
Sea Level Pressure 29.92 in    
Wind  
Wind Speed 12 mph (WNW)    
Max Wind Speed 26 mph    
Max Gust Speed 33 mph    
Visibility 10 miles    
Events      
Averages and records for this station are not official NWS values.
T = Trace of Precipitation, MM = Missing Value Source: NWS Daily Summary

Daily Weather History Graph

Daily Weather History Graph

Search for Another Location

Airport or City:

Astronomy

Sep. 26, 2019 Rise Set
Actual Time 6:56 AM PDT 6:54 PM PDT
Civil Twilight 6:26 AM PDT 7:24 PM PDT
Nautical Twilight 5:52 AM PDT 7:58 PM PDT
Astronomical Twilight 5:16 AM PDT 8:34 PM PDT
Moon 3:57 AM PDT (9/26) 6:21 PM PDT (9/26)
Length of Visible Light 12h 57m
Length of Day
11h 58m
Waning Crescent, 6% of the Moon is Illuminated
Sep 26
Waning Crescent
Sep 28
New
Oct 5
First Quarter
Oct 13
Full
Oct 21
Last Quarter

Hourly Weather History & Observations

Time (PDT) Temp. Dew Point Humidity Pressure Visibility Wind Dir Wind Speed Gust Speed Precip Events Conditions
12:53 AM 57.0 °F 44.1 °F 62% 30.01 in 10.0 mi SW 5.8 mph - N/A   Clear
1:53 AM 59.0 °F 44.1 °F 58% 29.99 in 10.0 mi North - - N/A   Clear
2:53 AM 63.0 °F 46.0 °F 54% 29.97 in 10.0 mi West 11.5 mph 25.3 mph N/A   Clear
3:53 AM 60.1 °F 46.0 °F 60% 29.96 in 10.0 mi West 8.1 mph - N/A   Clear
4:53 AM 61.0 °F 46.9 °F 60% 29.93 in 10.0 mi West 8.1 mph - N/A   Clear
5:53 AM 63.0 °F 48.9 °F 60% 29.91 in 10.0 mi NW 17.3 mph - N/A   Clear
6:53 AM 61.0 °F 50.0 °F 67% 29.91 in 10.0 mi NNW 5.8 mph - N/A   Scattered Clouds
7:53 AM 64.9 °F 52.0 °F 63% 29.91 in 10.0 mi Variable 5.8 mph - N/A   Mostly Cloudy
8:53 AM 66.0 °F 52.0 °F 60% 29.90 in 10.0 mi NNW 13.8 mph - N/A   Clear
9:53 AM 66.9 °F 52.0 °F 59% 29.91 in 10.0 mi NNW 16.1 mph - N/A   Overcast
10:53 AM 68.0 °F 52.0 °F 56% 29.91 in 10.0 mi NNW 15.0 mph - N/A   Overcast
11:53 AM 66.9 °F 53.1 °F 61% 29.90 in 10.0 mi NW 17.3 mph 27.6 mph N/A   Overcast
12:53 PM 68.0 °F 54.0 °F 61% 29.90 in 10.0 mi NNW 17.3 mph 26.5 mph N/A   Overcast
1:53 PM 69.1 °F 55.0 °F 61% 29.88 in 10.0 mi NNW 18.4 mph - N/A   Overcast
2:53 PM 71.1 °F 54.0 °F 55% 29.85 in 10.0 mi WNW 26.5 mph 33.4 mph N/A   Clear
4:53 PM 71.1 °F 51.1 °F 49% 29.86 in 10.0 mi NW 23.0 mph 32.2 mph N/A   Clear
6:53 PM 66.0 °F 48.9 °F 54% 29.88 in 10.0 mi WNW 11.5 mph - N/A   Clear
7:53 PM 64.9 °F 46.9 °F 52% 29.90 in 10.0 mi WNW 15.0 mph 21.9 mph N/A   Clear
8:53 PM 64.9 °F 48.0 °F 54% 29.91 in 10.0 mi WNW 21.9 mph 28.8 mph N/A   Clear
9:53 PM 63.0 °F 48.0 °F 58% 29.91 in 10.0 mi WNW 18.4 mph - N/A   Clear
10:53 PM 63.0 °F 48.0 °F 58% 29.92 in 10.0 mi WNW 16.1 mph - N/A   Clear
11:53 PM 62.1 °F 48.0 °F 60% 29.92 in 10.0 mi West 11.5 mph - N/A   Clear